QPF
0.00 0.00 0.00 0.00 0.00 0.00 0.00 0.00 0.00 0.00 0.00 0.00 0.00 0.00 0.00 0.00 0.01 0.01 0.01 0.01 0.01 0.01 0.01 0.01 0.01 0.01 0.01 0.01 0.01 0.00 0.00 0.00 0.00 0.00 0.00 0.00 0.00 0.00 0.00 0.00 0.00 0.00 0.00
0.00 0.00 0.00 0.00 0.00 0.00 0.00 0.00 0.00 0.00 0.00 0.00 0.00 0.00 0.00 0.00 0.01 0.01 0.01 0.01 0.01 0.01 0.01 0.01 0.01 0.01 0.01 0.01 0.01 0.00 0.00 0.00 0.00 0.01 0.00 0.00 0.00 0.00 0.00 0.00 0.00 0.00 0.00
0.00 0.00 0.00 0.00 0.00 0.00 0.00 0.00 0.00 0.00 0.00 0.00 0.00 0.00 0.00 0.00 0.00 0.01 0.01 0.01 0.01 0.01 0.01 0.01 0.01 0.01 0.01 0.01 0.01 0.01 0.01 0.01 0.01 0.01 0.01 0.01 0.01 0.00 0.00 0.00 0.00 0.00 0.00
0.00 0.00 0.00 0.00 0.00 0.00 0.00 0.00 0.00 0.00 0.00 0.00 0.00 0.00 0.00 0.00 0.00 0.00 0.01 0.01 0.02 0.02 0.02 0.02 0.02 0.01 0.01 0.01 0.01 0.01 0.01 0.01 0.01 0.01 0.01 0.01 0.01 0.01 0.00 0.00 0.00 0.00 0.00
0.00 0.00 0.00 0.00 0.00 0.00 0.00 0.00 0.00 0.00 0.00 0.00 0.00 0.00 0.00 0.00 0.00 0.00 0.01 0.01 0.01 0.02 0.02 0.02 0.02 0.02 0.02 0.02 0.01 0.01 0.02 0.02 0.02 0.02 0.02 0.02 0.01 0.01 0.01 0.00 0.00 0.00 0.00
0.00 0.00 0.00 0.00 0.00 0.00 0.00 0.00 0.00 0.00 0.00 0.00 0.00 0.00 0.00 0.00 0.00 0.01 0.01 0.01 0.01 0.02 0.02 0.02 0.02 0.03 0.02 0.02 0.02 0.02 0.02 0.02 0.02 0.03 0.03 0.02 0.01 0.01 0.01 0.00 0.00 0.00 0.00
0.00 0.00 0.00 0.00 0.00 0.00 0.00 0.00 0.00 0.00 0.00 0.00 0.00 0.00 0.00 0.00 0.01 0.01 0.01 0.01 0.01 0.02 0.02 0.02 0.02 0.02 0.03 0.03 0.03 0.03 0.03 0.02 0.03 0.03 0.03 0.02 0.02 0.01 0.01 0.01 0.00 0.00 0.00
0.00 0.00 0.00 0.00 0.00 0.00 0.00 0.00 0.00 0.00 0.00 0.00 0.00 0.00 0.00 0.00 0.01 0.01 0.01 0.01 0.02 0.02 0.03 0.03 0.03 0.04 0.04 0.05 0.05 0.05 0.04 0.03 0.03 0.04 0.03 0.02 0.02 0.01 0.01 0.01 0.00 0.00 0.00
0.00 0.00 0.00 0.00 0.00 0.00 0.00 0.00 0.00 0.00 0.00 0.00 0.00 0.00 0.00 0.00 0.01 0.02 0.02 0.03 0.03 0.04 0.04 0.05 0.05 0.06 0.07 0.08 0.08 0.07 0.06 0.05 0.04 0.05 0.04 0.03 0.02 0.01 0.01 0.01 0.01 0.01 0.01
0.00 0.00 0.00 0.00 0.00 0.00 0.00 0.00 0.00 0.00 0.00 0.00 0.00 0.00 0.01 0.01 0.02 0.04 0.04 0.05 0.06 0.07 0.07 0.08 0.09 0.09 0.09 0.10 0.10 0.08 0.07 0.05 0.06 0.07 0.05 0.03 0.02 0.02 0.02 0.03 0.04 0.04 0.03
0.00 0.00 0.00 0.00 0.00 0.00 0.00 0.00 0.00 0.00 0.00 0.00 0.00 0.01 0.02 0.03 0.05 0.07 0.08 0.08 0.08 0.09 0.10 0.10 0.10 0.10 0.11 0.12 0.11 0.09 0.06 0.06 0.10 0.08 0.05 0.03 0.02 0.02 0.02 0.02 0.03 0.05 0.05
0.00 0.00 0.00 0.00 0.00 0.00 0.00 0.00 0.00 0.00 0.00 0.01 0.01 0.02 0.03 0.05 0.08 0.10 0.11 0.11 0.10 0.11 0.10 0.09 0.09 0.10 0.11 0.11 0.12 0.09 0.07 0.10 0.12 0.08 0.05 0.03 0.02 0.01 0.01 0.01 0.02 0.02 0.02
0.00 0.00 0.00 0.00 0.00 0.00 0.00 0.00 0.01 0.01 0.01 0.02 0.03 0.05 0.06 0.08 0.10 0.12 0.13 0.13 0.12 0.11 0.09 0.08 0.08 0.09 0.10 0.11 0.10 0.09 0.11 0.13 0.11 0.08 0.04 0.02 0.02 0.02 0.02 0.02 0.02 0.02 0.02
0.00 0.00 0.00 0.00 0.00 0.01 0.01 0.01 0.01 0.02 0.03 0.04 0.05 0.06 0.07 0.08 0.09 0.11 0.11 0.12 0.12 0.11 0.10 0.09 0.10 0.10 0.10 0.10 0.08 0.08 0.10 0.10 0.09 0.07 0.05 0.04 0.03 0.03 0.02 0.02 0.02 0.03 0.02
0.01 0.01 0.01 0.01 0.01 0.01 0.01 0.02 0.02 0.02 0.03 0.04 0.04 0.05 0.05 0.06 0.05 0.06 0.07 0.08 0.08 0.08 0.08 0.10 0.10 0.09 0.08 0.08 0.07 0.06 0.07 0.08 0.08 0.07 0.06 0.05 0.04 0.03 0.02 0.02 0.02 0.02 0.02
0.01 0.01 0.01 0.01 0.01 0.01 0.02 0.02 0.02 0.02 0.03 0.03 0.03 0.04 0.04 0.03 0.03 0.04 0.04 0.04 0.05 0.05 0.07 0.07 0.05 0.04 0.04 0.04 0.04 0.04 0.04 0.04 0.04 0.04 0.04 0.04 0.04 0.03 0.02 0.02 0.02 0.01 0.01
0.02 0.02 0.02 0.02 0.02 0.02 0.02 0.02 0.02 0.03 0.03 0.03 0.03 0.03 0.03 0.03 0.03 0.03 0.03 0.04 0.04 0.05 0.05 0.04 0.03 0.03 0.03 0.03 0.03 0.03 0.03 0.02 0.02 0.03 0.03 0.02 0.02 0.02 0.02 0.02 0.01 0.01 0.01
0.03 0.03 0.03 0.03 0.02 0.02 0.02 0.02 0.02 0.01 0.02 0.02 0.02 0.02 0.02 0.02 0.02 0.02 0.02 0.03 0.03 0.04 0.03 0.02 0.02 0.02 0.02 0.02 0.02 0.02 0.02 0.02 0.02 0.01 0.01 0.01 0.01 0.01 0.01 0.01 0.01 0.01 0.01
0.03 0.03 0.03 0.03 0.02 0.02 0.01 0.01 0.01 0.01 0.01 0.01 0.01 0.01 0.01 0.01 0.01 0.01 0.01 0.01 0.01 0.02 0.02 0.02 0.02 0.02 0.02 0.01 0.01 0.01 0.01 0.01 0.01 0.01 0.01 0.01 0.01 0.01 0.01 0.01 0.01 0.01 0.01
0.03 0.03 0.02 0.02 0.01 0.01 0.01 0.01 0.01 0.01 0.01 0.01 0.01 0.01 0.01 0.01 0.01 0.01 0.01 0.01 0.01 0.01 0.01 0.01 0.01 0.01 0.01 0.01 0.01 0.01 0.01 0.01 0.01 0.01 0.01 0.01 0.01 0.01 0.01 0.01 0.01 0.01 0.00
0.02 0.02 0.01 0.01 0.01 0.01 0.00 0.00 0.00 0.00 0.00 0.00 0.00 0.01 0.00 0.00 0.00 0.00 0.00 0.00 0.00 0.01 0.01 0.01 0.01 0.01 0.01 0.01 0.01 0.01 0.01 0.01 0.01 0.01 0.01 0.01 0.01 0.01 0.01 0.01 0.01 0.00 0.00
0.01 0.01 0.01 0.00 0.00 0.00 0.00 0.00 0.00 0.00 0.00 0.00 0.00 0.00 0.00 0.00 0.00 0.00 0.00 0.00 0.00 0.00 0.00 0.00 0.00 0.00 0.00 0.00 0.00 0.00 0.01 0.01 0.01 0.01 0.01 0.01 0.01 0.01 0.01 0.01 0.00 0.00 0.00
0.01 0.01 0.01 0.01 0.01 0.01 0.00 0.00 0.00 0.00 0.00 0.00 0.00 0.00 0.00 0.00 0.00 0.00 0.00 0.00 0.00 0.00 0.00 0.00 0.00 0.00 0.00 0.00 0.00 0.00 0.00 0.00 0.00 0.00 0.00 0.00 0.00 0.00 0.00 0.00 0.00 0.00 0.00
0.00 0.00 0.00 0.00 0.00 0.00 0.00 0.00 0.00 0.00 0.00 0.00 0.00 0.00 0.00 0.00 0.00 0.00 0.00 0.00 0.00 0.00 0.00 0.00 0.00 0.00 0.00 0.00 0.00 0.00 0.00 0.00 0.00 0.00 0.00 0.00 0.00 0.00 0.00 0.00 0.00 0.00 0.00
0.00 0.00 0.00 0.00 0.00 0.00 0.00 0.00 0.00 0.00 0.00 0.00 0.00 0.00 0.00 0.00 0.00 0.00 0.00 0.00 0.00 0.00 0.00 0.00 0.00 0.00 0.00 0.00 0.00 0.00 0.00 0.00 0.00 0.00 0.00 0.00 0.00 0.00 0.00 0.00 0.00 0.00 0.00
0.00 0.00 0.00 0.00 0.00 0.00 0.00 0.00 0.00 0.00 0.00 0.00 0.00 0.00 0.00 0.00 0.00 0.00 0.00 0.00 0.00 0.00 0.00 0.00 0.00 0.00 0.00 0.00 0.00 0.00 0.00 0.00 0.00 0.00 0.00 0.00 0.00 0.00 0.00 0.00 0.00 0.00 0.00
MSLP
1013.61 1013.82 1014.00 1014.12 1014.22 1014.31 1014.41 1014.56 1014.78 1015.08 1015.46 1015.90 1016.38 1016.87 1017.32 1017.72 1018.07 1018.36 1018.62 1018.87 1019.15 1019.48 1019.88 1020.35 1020.90 1021.50 1022.15 1022.83 1023.52 1024.22 1024.92 1025.64 1026.35 1027.07 1027.76 1028.42 1029.02 1029.53 1029.93 1030.22 1030.38 1030.44 1030.41
1013.20 1013.38 1013.53 1013.64 1013.72 1013.80 1013.91 1014.07 1014.29 1014.60 1014.97 1015.41 1015.87 1016.33 1016.76 1017.16 1017.50 1017.80 1018.07 1018.35 1018.65 1018.99 1019.39 1019.85 1020.37 1020.93 1021.53 1022.15 1022.80 1023.47 1024.17 1024.88 1025.62 1026.36 1027.09 1027.78 1028.40 1028.93 1029.34 1029.62 1029.78 1029.83 1029.79
1012.59 1012.76 1012.90 1013.01 1013.12 1013.23 1013.38 1013.57 1013.84 1014.16 1014.55 1014.98 1015.42 1015.85 1016.26 1016.62 1016.95 1017.24 1017.52 1017.80 1018.12 1018.47 1018.87 1019.32 1019.82 1020.35 1020.92 1021.52 1022.14 1022.80 1023.49 1024.21 1024.97 1025.73 1026.48 1027.19 1027.83 1028.36 1028.77 1029.04 1029.19 1029.23 1029.18
1011.85 1012.00 1012.14 1012.28 1012.43 1012.60 1012.81 1013.08 1013.40 1013.77 1014.18 1014.61 1015.03 1015.43 1015.80 1016.12 1016.42 1016.69 1016.96 1017.24 1017.56 1017.92 1018.33 1018.78 1019.28 1019.80 1020.36 1020.94 1021.56 1022.21 1022.90 1023.63 1024.40 1025.17 1025.93 1026.64 1027.28 1027.81 1028.21 1028.48 1028.62 1028.66 1028.61
1011.09 1011.21 1011.36 1011.52 1011.71 1011.95 1012.24 1012.59 1012.98 1013.40 1013.85 1014.28 1014.69 1015.07 1015.39 1015.68 1015.94 1016.18 1016.43 1016.72 1017.04 1017.41 1017.84 1018.30 1018.80 1019.33 1019.88 1020.47 1021.08 1021.73 1022.42 1023.15 1023.90 1024.67 1025.42 1026.12 1026.74 1027.26 1027.65 1027.92 1028.06 1028.10 1028.06
1010.45 1010.54 1010.66 1010.83 1011.07 1011.36 1011.72 1012.14 1012.60 1013.08 1013.56 1014.01 1014.41 1014.76 1015.05 1015.30 1015.53 1015.75 1015.99 1016.28 1016.61 1017.01 1017.45 1017.93 1018.45 1019.00 1019.56 1020.14 1020.75 1021.39 1022.06 1022.76 1023.49 1024.22 1024.94 1025.60 1026.19 1026.68 1027.06 1027.32 1027.47 1027.53 1027.51
1010.07 1010.09 1010.17 1010.33 1010.57 1010.90 1011.31 1011.78 1012.29 1012.82 1013.32 1013.79 1014.18 1014.51 1014.78 1015.01 1015.21 1015.43 1015.67 1015.97 1016.33 1016.75 1017.22 1017.74 1018.28 1018.83 1019.40 1019.98 1020.57 1021.18 1021.81 1022.46 1023.13 1023.80 1024.45 1025.06 1025.60 1026.05 1026.41 1026.67 1026.82 1026.90 1026.91
1009.99 1009.93 1009.95 1010.06 1010.28 1010.61 1011.04 1011.55 1012.09 1012.64 1013.16 1013.62 1014.02 1014.33 1014.59 1014.80 1015.00 1015.22 1015.48 1015.80 1016.20 1016.65 1017.16 1017.70 1018.26 1018.83 1019.39 1019.95 1020.50 1021.06 1021.63 1022.21 1022.80 1023.38 1023.95 1024.48 1024.95 1025.35 1025.67 1025.92 1026.09 1026.19 1026.24
1010.21 1010.05 1009.99 1010.04 1010.21 1010.52 1010.94 1011.45 1012.00 1012.55 1013.07 1013.53 1013.91 1014.21 1014.46 1014.67 1014.87 1015.10 1015.39 1015.74 1016.16 1016.65 1017.19 1017.76 1018.33 1018.90 1019.44 1019.97 1020.48 1020.97 1021.47 1021.95 1022.44 1022.92 1023.39 1023.82 1024.22 1024.56 1024.85 1025.09 1025.27 1025.40 1025.49
1010.61 1010.37 1010.22 1010.20 1010.33 1010.60 1010.99 1011.47 1012.00 1012.54 1013.04 1013.48 1013.84 1014.13 1014.36 1014.56 1014.77 1015.02 1015.32 1015.70 1016.15 1016.67 1017.23 1017.81 1018.38 1018.94 1019.46 1019.95 1020.40 1020.83 1021.24 1021.63 1022.02 1022.40 1022.76 1023.11 1023.43 1023.72 1023.98 1024.20 1024.40 1024.57 1024.72
1011.08 1010.76 1010.54 1010.46 1010.54 1010.77 1011.13 1011.58 1012.08 1012.58 1013.05 1013.45 1013.79 1014.05 1014.26 1014.45 1014.66 1014.91 1015.22 1015.61 1016.08 1016.61 1017.17 1017.75 1018.32 1018.85 1019.35 1019.79 1020.19 1020.56 1020.89 1021.21 1021.51 1021.81 1022.09 1022.36 1022.63 1022.87 1023.11 1023.33 1023.55 1023.76 1023.97
1011.50 1011.12 1010.85 1010.73 1010.77 1010.97 1011.30 1011.72 1012.18 1012.65 1013.08 1013.44 1013.73 1013.95 1014.13 1014.30 1014.49 1014.73 1015.04 1015.42 1015.88 1016.40 1016.96 1017.52 1018.07 1018.58 1019.04 1019.45 1019.81 1020.13 1020.42 1020.69 1020.94 1021.18 1021.42 1021.64 1021.87 1022.10 1022.32 1022.56 1022.81 1023.07 1023.34
1011.78 1011.36 1011.08 1010.94 1010.97 1011.16 1011.47 1011.86 1012.29 1012.72 1013.10 1013.42 1013.66 1013.84 1013.98 1014.11 1014.27 1014.48 1014.77 1015.13 1015.57 1016.06 1016.59 1017.13 1017.65 1018.13 1018.57 1018.96 1019.31 1019.61 1019.88 1020.13 1020.37 1020.60 1020.81 1021.03 1021.25 1021.48 1021.72 1021.99 1022.27 1022.58 1022.92
1011.93 1011.50 1011.21 1011.08 1011.12 1011.31 1011.62 1012.00 1012.41 1012.80 1013.13 1013.40 1013.59 1013.72 1013.82 1013.92 1014.04 1014.22 1014.47 1014.80 1015.20 1015.66 1016.16 1016.66 1017.15 1017.61 1018.03 1018.42 1018.76 1019.07 1019.36 1019.63 1019.88 1020.13 1020.37 1020.62 1020.86 1021.11 1021.38 1021.68 1022.00 1022.36 1022.74
1012.00 1011.58 1011.31 1011.20 1011.27 1011.47 1011.78 1012.16 1012.55 1012.91 1013.21 1013.44 1013.59 1013.68 1013.74 1013.80 1013.89 1014.03 1014.25 1014.55 1014.91 1015.33 1015.79 1016.26 1016.72 1017.16 1017.58 1017.96 1018.32 1018.66 1018.98 1019.29 1019.60 1019.89 1020.18 1020.46 1020.74 1021.03 1021.34 1021.67 1022.03 1022.42 1022.84
1012.13 1011.72 1011.48 1011.40 1011.49 1011.71 1012.04 1012.41 1012.78 1013.12 1013.40 1013.59 1013.71 1013.78 1013.82 1013.86 1013.93 1014.05 1014.25 1014.52 1014.85 1015.24 1015.66 1016.10 1016.53 1016.96 1017.37 1017.76 1018.14 1018.51 1018.87 1019.23 1019.58 1019.93 1020.27 1020.60 1020.93 1021.26 1021.60 1021.95 1022.33 1022.74 1023.17
1012.41 1012.03 1011.81 1011.76 1011.87 1012.12 1012.44 1012.81 1013.18 1013.50 1013.76 1013.94 1014.05 1014.11 1014.15 1014.19 1014.26 1014.39 1014.58 1014.84 1015.15 1015.51 1015.90 1016.31 1016.71 1017.12 1017.51 1017.90 1018.29 1018.68 1019.07 1019.47 1019.87 1020.26 1020.64 1021.02 1021.38 1021.73 1022.09 1022.46 1022.84 1023.23 1023.64
1012.93 1012.57 1012.38 1012.36 1012.49 1012.74 1013.07 1013.43 1013.78 1014.09 1014.34 1014.52 1014.64 1014.72 1014.78 1014.84 1014.94 1015.09 1015.30 1015.56 1015.86 1016.20 1016.56 1016.93 1017.30 1017.67 1018.04 1018.41 1018.79 1019.18 1019.58 1019.99 1020.40 1020.82 1021.23 1021.62 1022.00 1022.36 1022.72 1023.08 1023.44 1023.80 1024.18
1013.69 1013.37 1013.21 1013.21 1013.36 1013.61 1013.93 1014.28 1014.62 1014.92 1015.17 1015.36 1015.50 1015.61 1015.71 1015.82 1015.96 1016.14 1016.37 1016.64 1016.94 1017.26 1017.59 1017.92 1018.24 1018.56 1018.88 1019.21 1019.55 1019.91 1020.29 1020.69 1021.10 1021.51 1021.92 1022.31 1022.68 1023.04 1023.38 1023.71 1024.03 1024.35 1024.67
1014.64 1014.37 1014.25 1014.28 1014.43 1014.69 1015.00 1015.34 1015.67 1015.96 1016.22 1016.42 1016.59 1016.74 1016.88 1017.04 1017.23 1017.44 1017.69 1017.97 1018.26 1018.55 1018.84 1019.11 1019.38 1019.63 1019.88 1020.15 1020.43 1020.74 1021.07 1021.43 1021.81 1022.20 1022.58 1022.95 1023.30 1023.64 1023.95 1024.24 1024.52 1024.79 1025.04
1015.69 1015.48 1015.42 1015.48 1015.65 1015.91 1016.22 1016.54 1016.86 1017.15 1017.40 1017.62 1017.82 1018.00 1018.18 1018.38 1018.60 1018.84 1019.09 1019.36 1019.62 1019.87 1020.10 1020.31 1020.50 1020.68 1020.85 1021.04 1021.25 1021.49 1021.76 1022.07 1022.40 1022.75 1023.10 1023.44 1023.77 1024.08 1024.36 1024.62 1024.86 1025.08 1025.27
1016.74 1016.61 1016.60 1016.71 1016.91 1017.18 1017.48 1017.80 1018.10 1018.38 1018.63 1018.86 1019.06 1019.26 1019.46 1019.68 1019.90 1020.14 1020.38 1020.61 1020.83 1021.02 1021.18 1021.31 1021.41 1021.51 1021.60 1021.70 1021.84 1022.01 1022.22 1022.48 1022.76 1023.07 1023.39 1023.71 1024.01 1024.30 1024.56 1024.79 1025.00 1025.18 1025.34
1017.69 1017.66 1017.73 1017.89 1018.12 1018.40 1018.70 1019.00 1019.29 1019.56 1019.79 1020.00 1020.20 1020.39 1020.58 1020.78 1020.98 1021.18 1021.37 1021.55 1021.70 1021.82 1021.89 1021.94 1021.96 1021.97 1021.99 1022.02 1022.09 1022.20 1022.37 1022.58 1022.83 1023.11 1023.41 1023.71 1024.00 1024.28 1024.53 1024.76 1024.96 1025.13 1025.26
1018.53 1018.60 1018.74 1018.95 1019.21 1019.50 1019.80 1020.08 1020.35 1020.58 1020.78 1020.96 1021.12 1021.28 1021.42 1021.57 1021.72 1021.86 1021.98 1022.08 1022.15 1022.19 1022.18 1022.15 1022.10 1022.04 1021.99 1021.97 1021.99 1022.07 1022.20 1022.38 1022.61 1022.88 1023.17 1023.47 1023.77 1024.05 1024.32 1024.55 1024.76 1024.93 1025.07
1019.28 1019.43 1019.64 1019.89 1020.17 1020.46 1020.74 1020.99 1021.21 1021.40 1021.55 1021.68 1021.78 1021.87 1021.95 1022.02 1022.09 1022.15 1022.19 1022.21 1022.19 1022.15 1022.07 1021.98 1021.87 1021.76 1021.67 1021.62 1021.61 1021.67 1021.78 1021.95 1022.17 1022.44 1022.73 1023.04 1023.35 1023.65 1023.93 1024.19 1024.42 1024.62 1024.78
1019.99 1020.20 1020.44 1020.71 1020.99 1021.25 1021.50 1021.71 1021.87 1022.00 1022.08 1022.13 1022.16 1022.17 1022.16 1022.15 1022.13 1022.10 1022.06 1022.00 1021.91 1021.80 1021.67 1021.53 1021.39 1021.25 1021.14 1021.07 1021.05 1021.09 1021.19 1021.35 1021.57 1021.83 1022.12 1022.44 1022.76 1023.09 1023.40 1023.69 1023.96 1024.20 1024.40
Thickness
5645 5642 5638 5634 5631 5627 5623 5619 5614 5610 5604 5598 5591 5584 5579 5574 5569 5563 5558 5551 5544 5538 5532 5525 5518 5512 5505 5499 5492 5486 5479 5471 5458 5447 5440 5432 5422 5414 5406 5398 5391 5385 5378
5634 5631 5627 5624 5621 5617 5614 5610 5605 5600 5595 5589 5582 5576 5571 5565 5560 5555 5550 5544 5538 5531 5525 5517 5510 5503 5495 5489 5482 5475 5468 5462 5451 5437 5427 5418 5410 5402 5394 5387 5380 5373 5367
5623 5619 5617 5614 5612 5609 5606 5601 5596 5590 5584 5579 5573 5567 5562 5556 5551 5546 5541 5536 5531 5525 5518 5511 5504 5495 5487 5480 5472 5464 5457 5449 5442 5429 5417 5407 5398 5389 5381 5374 5368 5362 5356
5612 5609 5607 5605 5603 5600 5596 5591 5586 5581 5575 5569 5563 5558 5552 5547 5542 5536 5530 5525 5520 5514 5509 5503 5495 5489 5481 5472 5462 5454 5444 5435 5426 5416 5405 5394 5385 5376 5368 5361 5355 5350 5344
5601 5599 5598 5596 5593 5590 5586 5581 5576 5571 5565 5559 5553 5546 5541 5536 5532 5526 5520 5515 5509 5503 5497 5492 5485 5478 5471 5462 5453 5443 5433 5422 5412 5401 5391 5381 5372 5363 5356 5349 5343 5338 5333
5591 5590 5588 5584 5581 5578 5574 5569 5564 5559 5554 5548 5542 5536 5531 5527 5522 5516 5510 5504 5499 5493 5486 5479 5472 5464 5456 5449 5441 5433 5424 5412 5400 5389 5379 5370 5363 5355 5345 5337 5330 5323 5319
5577 5576 5573 5570 5567 5565 5561 5557 5552 5547 5542 5536 5531 5525 5520 5516 5511 5505 5500 5493 5487 5482 5475 5466 5458 5450 5442 5433 5424 5416 5407 5399 5391 5380 5370 5362 5351 5343 5333 5325 5317 5310 5306
5562 5561 5558 5555 5553 5550 5547 5544 5539 5534 5528 5523 5518 5513 5508 5503 5499 5493 5487 5480 5474 5468 5462 5454 5445 5435 5427 5419 5409 5399 5390 5382 5375 5366 5359 5350 5339 5330 5321 5313 5304 5296 5292
5546 5545 5543 5541 5538 5535 5532 5528 5524 5518 5513 5508 5504 5498 5494 5489 5484 5479 5473 5465 5459 5453 5446 5438 5430 5421 5413 5403 5394 5384 5374 5365 5358 5350 5343 5335 5325 5316 5306 5296 5287 5278 5275
5528 5528 5527 5525 5522 5519 5516 5512 5507 5502 5497 5492 5487 5482 5478 5473 5469 5464 5458 5451 5443 5436 5429 5421 5413 5406 5397 5389 5380 5371 5361 5352 5342 5335 5328 5321 5312 5303 5294 5285 5275 5265 5259
5507 5508 5508 5507 5504 5501 5498 5494 5489 5483 5478 5473 5468 5464 5460 5456 5452 5447 5442 5435 5428 5420 5412 5404 5397 5389 5381 5374 5366 5357 5350 5339 5330 5322 5315 5308 5299 5291 5282 5274 5265 5256 5248
5485 5486 5486 5486 5484 5481 5477 5473 5469 5464 5458 5453 5448 5444 5440 5436 5433 5430 5425 5420 5412 5404 5396 5388 5380 5373 5365 5358 5350 5343 5334 5325 5316 5309 5302 5295 5287 5280 5272 5263 5254 5245 5237
5462 5463 5463 5462 5461 5458 5455 5451 5446 5442 5437 5432 5428 5424 5420 5416 5413 5411 5407 5402 5396 5387 5380 5373 5364 5357 5349 5342 5335 5327 5319 5311 5303 5296 5291 5285 5277 5269 5261 5252 5243 5233 5224
5439 5440 5439 5439 5437 5435 5432 5429 5425 5421 5417 5412 5408 5404 5400 5396 5393 5391 5388 5383 5377 5370 5363 5356 5349 5341 5334 5327 5320 5312 5305 5298 5291 5285 5279 5271 5263 5255 5247 5238 5228 5219 5209
5417 5417 5416 5416 5415 5412 5410 5408 5404 5401 5399 5394 5390 5386 5381 5378 5375 5373 5368 5363 5358 5353 5346 5339 5331 5325 5319 5312 5304 5297 5290 5283 5277 5270 5263 5256 5248 5240 5231 5222 5212 5202 5192
5396 5396 5395 5394 5392 5390 5388 5385 5384 5381 5379 5376 5372 5368 5363 5361 5358 5354 5350 5345 5340 5335 5328 5322 5316 5309 5303 5297 5290 5282 5275 5268 5261 5254 5247 5239 5231 5223 5214 5205 5195 5185 5176
5375 5375 5373 5372 5370 5369 5367 5364 5360 5357 5356 5354 5351 5348 5344 5341 5338 5335 5331 5326 5321 5316 5310 5304 5298 5292 5286 5280 5272 5266 5258 5251 5243 5237 5229 5221 5213 5205 5196 5187 5178 5168 5158
5354 5354 5353 5351 5349 5348 5346 5343 5340 5337 5333 5328 5327 5325 5323 5321 5318 5314 5310 5306 5300 5295 5289 5284 5278 5272 5267 5261 5254 5247 5240 5232 5225 5219 5211 5203 5194 5186 5177 5169 5160 5150 5140
5330 5331 5331 5330 5328 5326 5323 5321 5318 5315 5311 5306 5302 5300 5299 5298 5295 5291 5287 5282 5276 5270 5265 5259 5254 5249 5244 5238 5233 5227 5220 5213 5206 5199 5191 5183 5175 5167 5158 5150 5141 5132 5122
5308 5308 5309 5308 5306 5304 5301 5299 5296 5292 5288 5283 5278 5275 5274 5273 5268 5263 5259 5255 5250 5245 5240 5235 5230 5225 5220 5215 5210 5204 5198 5191 5185 5178 5171 5163 5155 5147 5139 5129 5120 5111 5103
5287 5286 5286 5285 5282 5280 5278 5275 5272 5268 5263 5258 5254 5254 5254 5248 5243 5239 5234 5229 5225 5220 5216 5212 5207 5203 5198 5193 5188 5182 5176 5170 5164 5157 5150 5142 5134 5125 5117 5109 5100 5091 5083
5266 5265 5263 5261 5258 5256 5253 5251 5248 5244 5240 5236 5232 5230 5230 5224 5220 5215 5211 5205 5202 5198 5194 5190 5186 5181 5177 5172 5166 5160 5154 5148 5141 5135 5127 5120 5112 5103 5095 5087 5079 5071 5063
5245 5243 5241 5238 5236 5233 5231 5227 5224 5221 5218 5214 5211 5207 5204 5201 5197 5193 5189 5185 5182 5178 5174 5170 5165 5160 5155 5149 5144 5138 5132 5126 5120 5113 5105 5097 5089 5081 5073 5066 5058 5051 5045
5224 5222 5220 5217 5215 5212 5209 5206 5203 5200 5197 5194 5190 5187 5183 5180 5176 5173 5169 5165 5162 5158 5153 5149 5144 5138 5133 5127 5121 5115 5109 5103 5097 5090 5083 5075 5067 5060 5053 5046 5040 5034 5028
5203 5201 5199 5197 5194 5191 5189 5186 5183 5180 5177 5174 5171 5168 5164 5161 5157 5154 5150 5146 5142 5137 5132 5127 5122 5116 5111 5105 5099 5093 5086 5080 5073 5067 5060 5054 5047 5040 5034 5028 5022 5017 5013
5183 5181 5179 5177 5175 5172 5170 5167 5164 5161 5158 5155 5152 5149 5146 5142 5138 5135 5131 5126 5122 5117 5112 5106 5100 5095 5089 5083 5077 5070 5064 5057 5051 5045 5039 5033 5027 5021 5016 5011 5006 5002 4998